Home   Weather   Carlisle   Past weeks
Flag for United Kingdom

Past Weather in Carlisle, England, United Kingdom — Yesterday and Last 2 Weeks

Now
61 °F

Refreshingly cool.


Feels Like: 61 °F
Forecast: 60 / 38 °F
Wind: N/A

Location: Carlisle

Current Time: May 21, 2019 at 4:02:09 pm

Latest Report: May 21, 2019 at 3:00 pm


Visibility: 47 mi

Pressure: 30.07 "Hg

Humidity: 51%

Dew Point: 42 °F

Location of CarlisleLocation

Past Weather in Carlisle — Graph

°F

Carlisle Temperature Yesterday

Maximum temperature yesterday: 62 °F (at 5:00 pm)
Minimum temperature yesterday: 49 °F (at 6:00 am)
Average temperature yesterday: 55 °F

High & Low Weather Summary for the Past Weeks

 TemperatureHumidityPressure
High71 °F (May 15, 4:00 pm)95% (May 18, 5:00 am)30.69 "Hg (May 18, 5:00 am)
Low32 °F (May 10, 5:00 am)37% (May 12, 5:00 pm)29.32 "Hg (May 8, 6:00 pm)
Average51 °F70%30.05 "Hg
* Reported May 6 2:00 pm — May 21 2:00 pm, Carlisle. Weather by CustomWeather, © 2019

Note: Actual official high and low records may vary slightly from our data, if they occured in-between our weather recording intervals... More about our weather records

Advertising

Carlisle Weather History for the Previous 24 Hours

Scroll right to see more
 ConditionsComfort  
Time TempWeatherWind HumidityBarometerVisibility
2:00 pm
Tue, May 21
60 °FRefreshingly cool.N/A57%30.07 "Hg47 mi
1:00 pm60 °FRefreshingly cool.N/A59%30.07 "Hg40 mi
12:00 pm57 °FCool.N/A64%30.08 "Hg47 mi
11:00 am55 °FCool.N/A70%30.08 "Hg47 mi
10:00 am54 °FCool.N/A72%30.08 "Hg47 mi
9:00 am53 °FCool.N/A77%30.07 "Hg37 mi
8:00 am50 °FCool.N/A83%30.06 "Hg40 mi
7:00 am48 °FCool.N/A90%30.06 "Hg37 mi
6:00 am46 °FCool.N/A90%30.06 "Hg28 mi
5:00 am45 °FCool.N/A93%30.04 "Hg25 mi
3:00 am47 °FCool.N/A89%30.03 "Hg34 mi
2:00 am48 °FCool.N/A87%30.02 "Hg34 mi
1:00 am48 °FCool.N/A87%30.01 "Hg43 mi
12:00 am50 °FCool.N/A84%30.01 "Hg40 mi
11:00 pm
Mon, May 20
51 °FCool.N/A81%30.00 "Hg47 mi
10:00 pm53 °FCool.N/A78%29.99 "Hg47 mi
9:00 pm55 °FCool.N/A76%29.97 "Hg40 mi
8:00 pm58 °FCool.N/A67%29.97 "Hg47 mi
7:00 pm58 °FCool.N/A66%29.96 "Hg40 mi
6:00 pm61 °FRefreshingly cool.N/A59%29.94 "Hg47 mi
5:00 pm62 °FRefreshingly cool.N/A59%29.94 "Hg47 mi
4:00 pm61 °FRefreshingly cool.N/A57%29.93 "Hg28 mi
Weather by CustomWeather, © 2019

See weather overview